Tracking 28799 objects as of 17-Apr-2024
HD Live streaming from Space Station
objects crossing your sky now

THOR ABLESTAR DEB

Track THOR ABLESTAR DEB now!
10-day predictions


NORAD ID: 653
Int'l Code: 1961-015HE
Perigee: 891.5 km
Apogee: 1,134.2 km
Inclination: 67.5 °
Period: 105.2 minutes
Semi major axis: 7383 km
RCS: 0.0608 m2 (small)
Launch date: June 29, 1961
Source: United States (US)
Launch site: AIR FORCE EASTERN TEST RANGE (AFETR)

Note: This is SATELLITE DEBRIS
Your satellite tracking list
Your tracking list is empty




NASA's NSSDC Master Catalog

Two Line Element Set (TLE):
1   653U 61015HE  24108.27711757  .00001880  00000-0  20752-2 0  9994
2   653  67.4510 183.0174 0164354 250.0825 180.4524 13.68284609109975
Source of the keplerian elements: AFSPC